15min,AgWx,beryljct,423,20DEC2018:00:00:00,29.8,12.9,31.7,30.5,31.3,32.0,30.3,74,77,73,0.427,24.1,24.8,23.3,1.447,2.5,315,12,3.2,-0.00008,-0.00009,35.5,36.5,22,0,0,35.3,8.81,0.00,0.00
15min,AgWx,beryljct,423,20DEC2018:00:15:00,29.6,12.91,31.5,31.2,30.9,31.9,30.2,76,77,72,0.428,24.1,25.0,23.3,2.784,2.2,310,9.5,3.9,-0.00010,-0.00012,35.4,36.4,22,0,0,35.5,8.81,0.00,0.00
15min,AgWx,beryljct,423,20DEC2018:00:30:00,29.6,12.89,31.3,30.2,30.9,31.6,29.5,74,78,72,0.425,23.7,24.7,21.9,1.403,2.8,331,46,4.4,-0.00007,-0.00007,35.3,36.4,21,0,0,35.5,8.81,0.00,0.00
15min,AgWx,beryljct,423,20DEC2018:00:45:00,29.3,12.87,28.9,26.6,28.9,30.9,26.6,77,81,74,0.398,22.6,24.1,21.1,0,1.3,60,4.4,4.8,-0.00014,-0.00018,35.3,36.4,21,0,0,35.7,8.81,0.00,0.00
15min,AgWx,beryljct,423,20DEC2018:01:00:00,28.6,12.87,28.1,24.9,27.7,29.3,24.9,80,83,76,0.366,22.4,23.8,19.5,3.573,1.4,81,23,4.6,-0.00014,-0.00018,35.2,36.4,22,0,0,35.6,8.81,0.00,0.00
15min,AgWx,beryljct,423,20DEC2018:01:15:00,27.8,12.87,24.7,22.7,24.5,25.7,22.7,85,86,81,0.358,20.6,21.8,19.2,0,2.9,123,0.6,4.5,-0.00008,-0.00009,35.2,36.4,22,0,0,35.5,8.81,0.00,0.00
15min,AgWx,beryljct,423,20DEC2018:01:30:00,26.8,12.86,23.3,22.8,22.7,23.1,22.2,88,89,86,0.367,19.6,20.1,18.9,1.469,1.9,159,3.2,3.3,-0.00011,-0.00013,35.1,36.4,22,0,0,35.7,8.81,0.00,0.00
15min,AgWx,beryljct,423,20DEC2018:01:45:00,25.8,12.85,24.9,25.2,24.1,25.4,22.9,88,89,85,0.401,20.9,22.2,19.7,0.943,0.6,159,0.1,1.7,-0.00016,-0.00023,35.0,36.4,21,0,0,35.7,8.81,0.00,0.00
15min,AgWx,beryljct,423,20DEC2018:02:00:00,25.3,12.85,24.3,22.8,24.0,25.2,22.7,86,88,85,0.365,20.4,21.7,19.0,1.359,1.3,159,0.0,1.5,-0.00013,-0.00018,35.0,36.4,22,0,0,35.6,8.81,0.00,0.00
15min,AgWx,beryljct,423,20DEC2018:02:15:00,24.7,12.83,22.2,20.3,22.0,23.2,20.3,87,88,86,0.326,18.8,20.3,16.9,2.477,2.1,162,5.0,3.7,-0.00010,-0.00013,34.9,36.3,22,0,0,35.4,8.81,0.00,0.00
15min,AgWx,beryljct,423,20DEC2018:02:30:00,24.2,12.83,22.4,21.8,21.6,23.6,20.3,88,91,85,0.344,18.7,21.1,16.9,1.513,2.0,170,0.0,2.9,-0.00010,-0.00013,34.9,36.3,21,0,0,35.8,8.81,0.00,0.00
15min,AgWx,beryljct,423,20DEC2018:02:45:00,23.7,12.8,22.1,20.7,21.6,23.2,20.7,86,90,85,0.328,18.2,20.6,16.8,2.324,1.9,170,0.2,2.5,-0.00010,-0.00013,34.8,36.3,22,0,0,35.5,8.81,0.00,0.00
15min,AgWx,beryljct,423,20DEC2018:03:00:00,23.2,12.68,20.3,19.5,19.9,20.7,19.5,87,88,86,0.317,16.6,17.2,16.2,1.6,1.5,169,3.5,3.1,-0.00011,-0.00014,34.8,36.3,22,0,0,35.5,8.81,0.00,0.00
15min,AgWx,beryljct,423,20DEC2018:03:15:00,22.5,12.66,19.7,19.1,19.3,19.8,18.7,88,89,87,0.315,16.3,16.8,15.7,2.565,2.3,161,1.4,3.2,-0.00009,-0.00011,34.7,36.3,22,0,0,35.7,8.81,0.00,0.00
15min,AgWx,beryljct,423,20DEC2018:03:30:00,22.0,12.65,19.2,18.1,18.7,19.2,18.1,89,90,88,0.303,16.0,16.6,15.3,0.066,1.6,162,0.1,3.0,-0.00011,-0.00014,34.7,36.3,22,0,0,35.7,8.81,0.00,0.00
15min,AgWx,beryljct,423,20DEC2018:03:45:00,21.5,12.75,18.4,17.6,17.8,18.3,17.2,88,90,87,0.296,15.0,15.7,14.1,1.206,0.7,176,26,2.2,-0.00014,-0.00019,34.6,36.3,22,0,0,35.7,8.82,0.00,0.00
15min,AgWx,beryljct,423,20DEC2018:04:00:00,21.0,12.75,18.0,17.3,17.4,17.9,17.1,89,90,88,0.297,14.8,15.3,14.3,4.034,3.8,300,3.8,4.4,-0.00006,-0.00006,34.6,36.2,21,0,0,35.6,8.81,0.00,0.00
15min,AgWx,beryljct,423,20DEC2018:04:15:00,20.7,12.74,18.1,17.8,17.4,17.8,17.0,90,91,90,0.307,15.1,15.6,14.5,4.253,4.7,318,4.8,5.5,-0.00005,-0.00005,34.6,36.2,21,0,0,35.3,8.82,0.00,0.00
15min,AgWx,beryljct,423,20DEC2018:04:30:00,20.7,12.73,19.2,19.1,18.4,19.2,17.8,91,92,91,0.327,16.3,17.1,15.6,4.582,4.4,332,6.9,5.1,-0.00006,-0.00006,34.5,36.2,22,0,0,35.5,8.81,0.00,0.00
15min,AgWx,beryljct,423,20DEC2018:04:45:00,20.9,12.73,19.7,18.3,19.1,19.6,18.2,91,92,90,0.311,16.9,17.5,15.7,0,3.2,339,2.3,5.0,-0.00007,-0.00009,34.5,36.2,21,0,0,35.8,8.81,0.00,0.00
15min,AgWx,beryljct,423,20DEC2018:05:00:00,20.7,12.71,19.6,18.7,18.9,19.7,18.3,91,91,89,0.318,16.6,17.5,15.7,0.745,1.1,336,0.2,2.0,-0.00012,-0.00017,34.5,36.2,22,0,0,35.5,8.81,0.00,0.00
15min,AgWx,beryljct,423,20DEC2018:05:15:00,20.4,12.7,20.2,18.7,19.5,20.2,18.4,90,92,89,0.311,17.1,18.1,15.9,1.425,0.9,336,0.1,1.5,-0.00013,-0.00019,34.4,36.1,21,0,0,35.5,8.81,0.00,0.00
15min,AgWx,beryljct,423,20DEC2018:05:30:00,20.1,12.7,17.6,16.0,17.3,18.6,16.0,88,89,88,0.274,14.5,15.7,13.0,4.472,2.1,326,69,4.9,-0.00009,-0.00011,34.4,36.1,22,0,0,35.4,8.82,0.00,0.00
15min,AgWx,beryljct,423,20DEC2018:05:45:00,19.7,12.7,16.6,16.0,16.0,16.2,15.7,89,90,88,0.279,13.4,13.7,13.0,3.376,3.5,186,7.2,4.9,-0.00006,-0.00007,34.3,36.1,21,0,0,35.6,8.82,0.00,0.00
15min,AgWx,beryljct,423,20DEC2018:06:00:00,19.3,12.68,16.9,16.3,16.2,16.5,16.0,90,90,89,0.284,13.7,14.2,13.4,0.241,2.9,177,3.5,4.8,-0.00007,-0.00008,34.3,36.1,21,0,0,35.6,8.82,0.00,0.00
15min,AgWx,beryljct,423,20DEC2018:06:15:00,19.0,12.68,17.8,18.4,17.0,18.4,16.4,90,92,90,0.317,14.7,16.3,13.9,3.179,2.7,183,3.3,4.4,-0.00008,-0.00009,34.3,36.1,21,0,0,35.6,8.82,0.00,0.00
15min,AgWx,beryljct,423,20DEC2018:06:30:00,19.1,12.68,19.1,18.4,18.5,18.8,18.2,91,92,90,0.312,16.2,16.7,15.7,3.135,2.8,184,1.4,3.9,-0.00008,-0.00009,34.2,36.0,22,0,0,35.6,8.82,0.00,0.00
15min,AgWx,beryljct,423,20DEC2018:06:45:00,19.1,12.68,18.9,18.4,18.3,18.8,17.7,90,91,89,0.315,16.0,16.6,15.1,2.017,2.0,177,6.6,3.4,-0.00010,-0.00012,34.2,36.0,22,0,0,35.6,8.81,0.00,0.00
15min,AgWx,beryljct,423,20DEC2018:07:00:00,19.1,12.66,20.2,19.3,19.4,20.3,18.4,91,92,90,0.326,17.2,18.1,16.2,2.828,2.5,178,3.0,2.9,0.00003,0.00005,34.1,36.0,22,0,0,35.6,8.81,0.00,0.00
15min,AgWx,beryljct,423,20DEC2018:07:15:00,19.3,12.65,19.6,19.7,19.0,19.7,18.3,91,92,90,0.336,16.8,17.7,15.8,3.705,3.7,187,3.1,4.5,0.00004,0.00007,34.1,36.0,22,0,0,35.5,8.82,0.00,0.00
15min,AgWx,beryljct,423,20DEC2018:07:30:00,19.5,12.65,20.5,19.7,19.9,20.2,19.7,92,92,91,0.333,17.9,18.2,17.5,3.266,3.7,180,3.9,4.6,0.00004,0.00007,34.1,36.0,21,0,0,35.6,8.81,0.00,0.00
15min,AgWx,beryljct,423,20DEC2018:07:45:00,19.6,12.53,18.9,17.5,18.6,19.7,17.4,90,91,88,0.296,16.0,17.4,14.6,2.368,3.9,182,1.7,5.1,0.00005,0.00009,34.0,35.9,22,3,0,35.5,8.81,0.00,0.00
15min,AgWx,beryljct,423,20DEC2018:08:00:00,19.6,12.65,20.2,19.8,19.4,20.9,17.3,91,92,89,0.332,17.1,18.9,14.6,2.938,2.2,191,25,3.6,0.00007,0.00009,34.0,35.9,21,15,0,35.7,8.82,0.00,0.00
15min,AgWx,beryljct,423,20DEC2018:08:15:00,20.0,13.13,18.7,17.5,18.5,19.9,17.5,89,90,88,0.296,15.8,17.5,14.7,3.617,1.6,269,17,4.4,0.00017,0.00019,34.0,35.9,21,58,0,35.7,8.82,0.00,0.00
15min,AgWx,beryljct,423,20DEC2018:08:30:00,20.8,13.65,19.2,20.3,18.5,20.3,17.3,89,90,88,0.340,15.8,17.9,14.4,3.508,3.3,323,1.4,4.3,0.00023,0.00027,34.0,35.9,21,92,0,35.7,8.81,0.00,0.00
15min,AgWx,beryljct,423,20DEC2018:08:45:00,22.3,14.89,22.2,22.5,21.5,22.5,20.4,90,90,89,0.371,19.0,20.0,18.0,0.044,0.7,325,0.3,3.3,0.00034,0.00037,33.9,35.9,22,128,0,36.7,8.81,0.00,0.00
15min,AgWx,beryljct,423,20DEC2018:09:00:00,24.6,14.87,24.9,25.9,24.1,25.9,22.5,89,90,88,0.420,21.4,22.9,20.0,0,0.4,326,0.0,1.9,0.00047,0.00050,33.9,35.9,22,165,0,36.4,8.81,0.00,0.00
15min,AgWx,beryljct,423,20DEC2018:09:15:00,27.4,14.86,27.0,27.0,26.4,27.0,25.7,87,89,85,0.426,23.1,23.4,22.5,1.622,1.5,350,13,2.9,0.00059,0.00065,33.9,35.8,22,203,0,38.1,8.81,0.00,0.00
15min,AgWx,beryljct,423,20DEC2018:09:30:00,30.0,14.76,28.1,28.2,27.6,28.2,27.0,84,86,82,0.430,23.3,23.7,22.9,1.929,2.2,3.1,8.6,3.1,0.00072,0.00081,33.9,35.8,22,241,0,39.6,8.81,0.00,0.00
15min,AgWx,beryljct,423,20DEC2018:09:45:00,32.2,14.76,29.6,29.6,29.1,29.6,28.2,81,83,79,0.440,23.9,24.2,23.4,1.118,1.9,358,5.4,3.1,0.00087,0.00097,33.8,35.8,22,278,0,41.8,8.81,0.00,0.00
15min,AgWx,beryljct,423,20DEC2018:10:00:00,34.5,14.7,31.0,31.4,30.5,31.4,29.6,79,80,77,0.460,24.7,25.2,24.0,1.688,1.5,359,4.3,2.5,0.00103,0.00114,33.8,35.8,22,313,0,45.8,8.81,0.00,0.00
15min,AgWx,beryljct,423,20DEC2018:10:15:00,36.6,14.78,32.9,33.3,32.4,33.3,31.3,76,77,73,0.469,25.6,26.3,24.9,1.447,1.3,3.9,2.0,2.6,0.00120,0.00132,33.8,35.8,22,346,0,48.6,8.81,0.00,0.00
15min,AgWx,beryljct,423,20DEC2018:10:30:00,38.5,14.66,35.0,35.8,34.5,35.8,33.3,72,74,69,0.495,26.3,27.1,25.6,0,1.5,16,4.1,2.9,0.00138,0.00152,33.8,35.7,22,378,0,50.4,8.81,0.00,0.00
15min,AgWx,beryljct,423,20DEC2018:10:45:00,40.4,14.63,36.9,37.3,36.5,37.5,35.7,68,70,65,0.492,26.8,27.7,26.4,0.548,1.1,46,29,2.7,0.00156,0.00170,33.8,35.7,22,408,0,53.9,8.81,0.00,0.00
15min,AgWx,beryljct,423,20DEC2018:11:00:00,42.0,14.19,38.1,38.6,37.8,38.6,37.2,64,66,62,0.495,26.8,27.6,26.2,0.877,1.4,80,4.4,2.9,0.00170,0.00187,33.7,35.7,22,435,0,56.1,8.81,0.00,0.00
15min,AgWx,beryljct,423,20DEC2018:11:15:00,43.4,14.17,39.5,40.3,39.1,40.3,38.3,61,63,59,0.505,26.7,27.7,26.2,0.088,0.4,78,7.8,2.1,0.00184,0.00198,33.7,35.7,22,459,0,59.3,8.81,0.00,0.00
15min,AgWx,beryljct,423,20DEC2018:11:30:00,44.9,14.2,40.4,40.3,40.2,40.7,39.6,59,60,58,0.498,27.2,27.8,26.5,0,0.8,87,25,2.9,0.00195,0.00213,33.7,35.7,22,479,0,60.2,8.80,0.00,0.00
15min,AgWx,beryljct,423,20DEC2018:11:45:00,45.9,14.15,41.7,41.9,41.3,42.2,40.3,58,59,57,0.514,27.8,28.7,27.1,2.214,0.6,97,13,2.2,0.00184,0.00199,33.7,35.7,21,438,0,59.7,8.80,0.00,0.00
15min,AgWx,beryljct,423,20DEC2018:12:00:00,47.1,14.11,43.1,43.8,42.7,44.2,41.4,55,57,52,0.514,27.6,28.0,27.2,0,0.6,61,6.5,3.1,0.00230,0.00249,33.7,35.6,22,535,0,63.6,8.80,0.00,0.00
15min,AgWx,beryljct,423,20DEC2018:12:15:00,48.3,14.08,43.8,44.1,43.7,44.2,43.0,53,54,52,0.514,27.6,28.5,27.2,1.929,0.6,92,7.2,2.7,0.00229,0.00249,33.7,35.6,22,528,0,64.5,8.80,0.00,0.00
15min,AgWx,beryljct,423,20DEC2018:12:30:00,49.3,14.06,45.6,45.7,45.4,47.0,44.0,50,53,48,0.515,27.8,28.9,27.4,1.951,0.7,78,4.9,2.7,0.00219,0.00240,33.6,35.6,22,498,0,64.8,8.80,0.00,0.00
15min,AgWx,beryljct,423,20DEC2018:12:45:00,50.2,14.04,46.3,46.4,46.1,47.2,45.6,48,50,46,0.501,27.4,28.1,26.6,0,0.2,73,1.4,2.0,0.00230,0.00247,33.6,35.6,22,516,0,64.8,8.79,0.00,0.00
15min,AgWx,beryljct,423,20DEC2018:13:00:00,51.2,13.98,47.0,47.0,46.9,47.7,46.4,47,48,46,0.516,27.6,28.4,26.6,1.71,1.4,114,12,3.1,0.00242,0.00269,33.6,35.6,22,523,0,64.7,8.79,0.00,0.00
15min,AgWx,beryljct,423,20DEC2018:13:15:00,51.7,13.96,48.1,48.6,47.8,48.6,47.0,46,48,45,0.532,28.1,28.6,27.6,0,0.8,129,9.4,2.4,0.00198,0.00218,33.6,35.6,22,447,0,62.0,8.79,0.00,0.00
15min,AgWx,beryljct,423,20DEC2018:13:30:00,52.4,13.91,49.0,49.1,48.8,50.1,47.9,46,48,44,0.528,28.8,29.9,27.9,1.688,1.1,88,19,2.6,0.00233,0.00259,33.7,35.5,22,500,0,62.5,8.79,0.00,0.00
15min,AgWx,beryljct,423,20DEC2018:13:45:00,53.5,13.88,50.0,50.0,49.9,50.4,48.9,44,45,42,0.519,28.6,29.5,28.0,1.14,1.5,89,20,3.4,0.00244,0.00275,33.8,35.5,22,509,0,63.4,8.79,0.00,0.00
15min,AgWx,beryljct,423,20DEC2018:14:00:00,54.2,13.88,50.7,51.2,50.5,51.3,50.0,42,43,40,0.517,28.2,29.0,27.7,1.951,1.8,83,28,3.6,0.00189,0.00219,34.0,35.5,22,404,0,61.1,8.79,0.00,0.00
15min,AgWx,beryljct,423,20DEC2018:14:15:00,55.1,13.87,52.0,52.3,51.8,52.3,50.9,40,42,39,0.520,28.0,29.1,27.4,0,1.2,146,8.5,3.2,0.00227,0.00255,34.3,35.5,22,470,0,64.4,8.78,0.00,0.00
15min,AgWx,beryljct,423,20DEC2018:14:30:00,55.9,13.83,53.1,53.3,52.9,53.4,52.3,38,40,37,0.512,28.1,28.9,27.1,2.872,1.3,109,19,3.5,0.00175,0.00201,34.6,35.5,22,377,0,64.2,8.78,0.00,0.00
15min,AgWx,beryljct,423,20DEC2018:14:45:00,56.7,13.82,54.6,54.6,54.3,55.0,53.2,35,38,32,0.472,27.5,29.0,25.7,3.354,3.0,130,23,5.1,0.00168,0.00213,34.9,35.5,22,327,0,63.4,8.78,0.00,0.00
15min,AgWx,beryljct,423,20DEC2018:15:00:00,57.1,13.84,55.7,56.4,55.4,56.4,54.6,33,35,29,0.445,26.8,28.2,24.3,8.99,3.5,139,16,9.0,0.00173,0.00225,35.2,35.5,22,324,0,62.3,8.78,0.00,0.00
15min,AgWx,beryljct,423,20DEC2018:15:15:00,57.4,13.85,56.9,56.9,56.7,57.0,56.2,27,29,23,0.368,23.0,24.8,19.8,11.57,9.4,165,9.8,14.0,0.00215,0.00332,35.6,35.5,22,257,0,59.9,8.78,0.00,0.00
15min,AgWx,beryljct,423,20DEC2018:15:30:00,57.7,13.84,57.5,57.0,57.3,57.6,56.9,23,24,22,0.363,19.9,20.8,19.2,10.65,12.2,173,9.5,15.4,0.00257,0.00406,35.9,35.5,22,266,0,59.9,8.78,0.00,0.00
15min,AgWx,beryljct,423,20DEC2018:15:45:00,57.6,13.89,57.1,56.3,56.9,57.4,56.2,23,24,22,0.372,19.6,20.2,19.2,7.585,10.7,174,7.6,14.5,0.00201,0.00334,36.2,35.6,22,181,0,58.8,8.77,0.00,0.00
15min,AgWx,beryljct,423,20DEC2018:16:00:00,57.4,13.9,57.1,56.8,56.9,57.3,56.3,24,24,23,0.378,20.2,20.8,19.5,8.83,10.3,178,7.4,14.6,0.00200,0.00328,36.5,35.6,22,193,0,59.1,8.77,0.00,0.00
15min,AgWx,beryljct,423,20DEC2018:16:15:00,56.8,13.45,55.8,54.9,55.9,56.8,54.9,25,26,24,0.375,20.5,21.0,20.2,8.44,9.9,179,6.7,13.0,0.00146,0.00264,36.7,35.6,22,100,0,57.0,8.77,0.00,0.00
15min,AgWx,beryljct,423,20DEC2018:16:30:00,55.3,13.35,53.5,52.6,53.6,54.9,52.6,27,29,26,0.385,20.8,21.1,20.3,8.15,8.6,186,4.6,11.4,0.00067,0.00084,36.9,35.7,21,61,0,53.3,8.77,0.00,0.00
15min,AgWx,beryljct,423,20DEC2018:16:45:00,53.5,13.33,52.0,51.0,52.0,52.7,51.0,29,30,28,0.386,20.7,21.0,20.4,5.941,6.9,178,6.1,9.3,0.00053,0.00069,37.1,35.7,21,52,0,51.8,8.77,0.00,0.00
15min,AgWx,beryljct,423,20DEC2018:17:00:00,51.6,13.23,49.5,48.5,49.6,51.0,48.5,32,33,30,0.385,20.9,21.1,20.8,6.182,6.3,182,3.5,7.2,0.00040,0.00053,37.3,35.8,21,25,0,48.8,8.77,0.00,0.00
15min,AgWx,beryljct,423,20DEC2018:17:15:00,49.7,13.17,48.6,49.4,48.2,49.5,47.5,34,35,32,0.382,20.9,21.2,20.5,8.11,7.6,191,7.4,10.0,0.00042,0.00054,37.4,35.9,21,9,0,46.9,8.77,0.00,0.00
15min,AgWx,beryljct,423,20DEC2018:17:30:00,48.8,13.15,49.5,48.8,49.2,49.6,48.8,32,33,32,0.389,20.9,21.2,20.7,8.75,9.1,202,3.9,10.8,0.00049,0.00062,37.5,35.9,21,3,0,48.0,8.77,0.00,0.00
15min,AgWx,beryljct,423,20DEC2018:17:45:00,48.2,13.14,48.0,47.3,47.9,48.8,47.3,34,35,33,0.390,21.2,21.4,21.0,7.015,7.6,205,4.0,8.9,0.00039,0.00051,37.5,36.0,21,0,0,46.6,8.77,0.00,0.00
15min,AgWx,beryljct,423,20DEC2018:18:00:00,47.4,13.11,47.9,47.5,47.5,47.9,47.1,35,35,34,0.388,21.0,21.2,20.8,5.963,6.5,199,3.4,7.5,0.00033,0.00045,37.6,36.1,21,0,0,46.3,8.77,0.00,0.00
15min,AgWx,beryljct,423,20DEC2018:18:15:00,46.8,13.11,47.6,47.3,47.3,47.6,47.1,35,35,34,0.383,20.8,21.0,20.5,6.73,6.4,199,4.6,7.2,0.00033,0.00044,37.6,36.1,21,0,0,45.7,8.77,0.00,0.00
15min,AgWx,beryljct,423,20DEC2018:18:30:00,46.4,13.1,47.3,46.1,47.1,47.5,46.1,35,36,34,0.384,20.9,21.1,20.7,6.949,7.4,200,3.2,9.1,0.00037,0.00048,37.6,36.2,21,0,0,45.8,8.77,0.00,0.00
15min,AgWx,beryljct,423,20DEC2018:18:45:00,45.7,13.09,44.6,42.7,44.7,46.4,42.7,38,41,35,0.379,20.5,20.8,20.3,5.744,6.1,178,7.6,7.3,0.00027,0.00037,37.6,36.3,21,0,0,43.9,8.78,0.00,0.00
15min,AgWx,beryljct,423,20DEC2018:19:00:00,44.5,13.07,43.5,44.7,43.0,44.7,41.6,40,43,37,0.370,20.3,20.5,19.9,5.875,6.2,174,6.7,7.2,0.00025,0.00033,37.6,36.3,21,0,0,42.2,8.78,0.00,0.00
15min,AgWx,beryljct,423,20DEC2018:19:15:00,43.7,13.07,45.5,45.1,45.0,45.9,44.4,36,38,35,0.370,19.9,20.2,19.7,4.275,5.3,176,6.3,6.6,0.00024,0.00033,37.6,36.4,21,0,0,43.8,8.78,0.00,0.00
15min,AgWx,beryljct,423,20DEC2018:19:30:00,43.1,13.07,43.6,42.6,43.6,45.4,42.6,39,41,36,0.377,20.0,20.3,19.5,1.403,1.1,311,38,4.2,-0.00015,-0.00020,37.5,36.4,21,0,0,41.8,8.78,0.00,0.00
15min,AgWx,beryljct,423,20DEC2018:19:45:00,42.2,13.04,39.8,37.7,40.0,42.8,36.6,45,51,40,0.381,20.4,21.1,20.0,4.384,2.0,48,7.2,4.4,-0.00006,-0.00005,37.5,36.5,21,0,0,39.4,8.78,0.00,0.00
15min,AgWx,beryljct,423,20DEC2018:20:00:00,41.3,13.05,42.7,43.5,41.7,44.2,38.3,42,49,37,0.367,20.0,20.6,19.4,3.025,3.1,52,21,4.9,0.00005,0.00010,37.4,36.5,21,0,0,40.0,8.78,0.00,0.00
15min,AgWx,beryljct,423,20DEC2018:20:15:00,40.9,13.04,41.4,40.4,41.4,43.7,39.3,41,46,38,0.362,19.7,20.2,19.3,1.622,1.9,27,2.1,3.2,-0.00006,-0.00005,37.4,36.6,21,0,0,40.1,8.78,0.00,0.00
15min,AgWx,beryljct,423,20DEC2018:20:30:00,39.9,13.03,35.4,34.0,35.8,40.1,34.0,53,57,43,0.380,20.3,20.7,19.2,3.332,3.0,72,28,4.7,0.00000,0.00002,37.3,36.6,21,0,0,36.0,8.79,0.00,0.00
15min,AgWx,beryljct,423,20DEC2018:20:45:00,38.6,13.02,34.6,35.1,34.1,35.1,33.2,57,60,55,0.382,20.6,20.9,20.2,0,1.5,96,2.1,3.3,-0.00011,-0.00013,37.3,36.7,21,0,0,35.6,8.79,0.00,0.00
15min,AgWx,beryljct,423,20DEC2018:21:00:00,37.8,13.02,36.6,35.5,36.0,36.9,34.7,53,57,50,0.382,20.3,21.2,20.0,0,0.1,97,0.0,1.7,-0.00026,-0.00041,37.2,36.7,21,0,0,35.4,8.79,0.00,0.00
15min,AgWx,beryljct,423,20DEC2018:21:15:00,37.2,13.01,36.0,35.2,35.6,36.1,35.2,53,55,51,0.376,20.3,20.7,19.9,0,0.8,97,0.0,2.2,-0.00018,-0.00026,37.1,36.7,21,0,0,35.7,8.79,0.00,0.00
15min,AgWx,beryljct,423,20DEC2018:21:30:00,36.6,13,34.6,33.8,34.3,35.5,32.6,57,62,53,0.385,20.7,21.3,20.0,1.359,0.8,74,8.5,2.6,-0.00018,-0.00026,37.0,36.7,21,0,0,35.5,8.79,0.00,0.00
15min,AgWx,beryljct,423,20DEC2018:21:45:00,36.2,12.99,34.4,33.0,34.0,34.8,33.0,58,62,55,0.393,20.7,21.4,20.3,0,1.3,69,0.2,2.9,-0.00012,-0.00016,36.9,36.8,21,0,0,35.4,8.79,0.00,0.00
15min,AgWx,beryljct,423,20DEC2018:22:00:00,35.9,12.99,34.6,35.6,33.8,36.0,32.6,59,63,53,0.385,21.2,21.5,20.6,4.077,1.5,55,14,5.1,-0.00012,-0.00014,36.9,36.8,21,0,0,35.6,8.79,0.00,0.00
15min,AgWx,beryljct,423,20DEC2018:22:15:00,35.9,12.96,35.7,34.0,35.4,37.1,33.6,55,59,52,0.379,20.8,21.4,20.4,1.666,1.8,319,36,5.0,-0.00008,-0.00009,36.8,36.8,21,0,0,35.7,8.79,0.00,0.00
15min,AgWx,beryljct,423,20DEC2018:22:30:00,35.7,12.96,35.2,34.1,34.7,36.7,33.4,57,60,52,0.398,20.8,21.6,20.4,0.658,0.5,301,2.6,2.0,-0.00021,-0.00030,36.7,36.8,22,0,0,35.7,8.79,0.00,0.00
15min,AgWx,beryljct,423,20DEC2018:22:45:00,35.5,12.97,36.4,40.1,35.3,40.1,33.2,57,62,47,0.398,21.4,21.9,21.1,3.42,1.9,334,22,6.9,-0.00008,-0.00010,36.6,36.8,22,0,0,36.4,8.79,0.00,0.00
15min,AgWx,beryljct,423,20DEC2018:23:00:00,36.2,12.96,39.8,40.5,39.2,40.9,38.1,48,51,45,0.385,21.3,21.9,20.7,0.658,3.1,318,18,6.5,0.00003,0.00007,36.6,36.8,21,0,0,39.0,8.79,0.00,0.00
15min,AgWx,beryljct,423,20DEC2018:23:15:00,37.2,12.95,43.5,43.5,42.7,44.7,40.5,42,46,39,0.397,21.3,22.3,20.6,2.258,1.7,138,98,3.4,-0.00009,-0.00009,36.5,36.8,21,0,0,40.7,8.79,0.00,0.00
15min,AgWx,beryljct,423,20DEC2018:23:30:00,38.1,12.96,41.1,39.6,41.2,43.5,39.4,46,51,41,0.414,22.1,22.7,21.5,0.11,0.6,140,0.7,2.1,-0.00022,-0.00031,36.4,36.8,21,0,0,40.2,8.79,0.00,0.00
15min,AgWx,bigpiney,439,20DEC2018:00:00:00,15.4,12.72,13.8,11.6,13.9,16.1,10.3,79,84,74,0.217,8.5,10.3,4.3,0,2.2,185,63,4.0,-0.00007,-0.00008,31.2,32.6,40,0,0,0.0,.,0.00,0.00
15min,AgWx,bigpiney,439,20DEC2018:00:15:00,15.2,12.7,13.5,10.1,13.2,14.9,10.1,81,85,78,0.191,8.5,10.4,5.0,2.105,3.2,264,41,5.7,-0.00005,-0.00005,31.2,32.6,40,0,0,0.0,.,0.00,0.00
15min,AgWx,bigpiney,439,20DEC2018:00:30:00,14.8,12.69,11.9,9.8,11.6,15.3,8.9,82,86,74,0.201,7.0,11.1,4.1,3.244,1.7,307,84,4.3,-0.00008,-0.00010,31.2,32.6,40,0,0,0.0,.,0.00,0.00
15min,AgWx,bigpiney,439,20DEC2018:00:45:00,14.2,12.7,10.8,10.4,10.4,12.9,8.9,85,88,79,0.208,6.7,9.9,4.3,4.165,2.6,275,19,4.2,-0.00006,-0.00007,31.2,32.6,40,0,0,0.0,.,0.00,0.00
15min,AgWx,bigpiney,439,20DEC2018:01:00:00,13.5,12.69,9.3,8.8,9.0,10.5,8.2,85,89,83,0.193,5.5,7.8,4.5,4.516,4.2,266,14,5.2,-0.00004,-0.00004,31.2,32.6,40,0,0,0.0,.,0.00,0.00
15min,AgWx,bigpiney,439,20DEC2018:01:15:00,12.9,12.69,11.1,10.9,10.4,11.8,8.9,84,87,82,0.207,6.6,8.0,5.3,2.74,3.8,274,13,6.3,-0.00004,-0.00004,31.2,32.6,40,0,0,0.0,.,0.00,0.00
15min,AgWx,bigpiney,439,20DEC2018:01:30:00,12.6,12.68,10.8,10.2,10.4,12.2,9.2,83,85,79,0.203,6.4,8.5,4.6,2.872,3.4,275,17,5.1,-0.00004,-0.00005,31.2,32.6,40,0,0,0.0,.,0.00,0.00
15min,AgWx,bigpiney,439,20DEC2018:01:45:00,12.3,12.68,8.7,7.2,8.6,10.1,7.2,84,86,81,0.175,4.7,6.2,3.1,1.381,2.3,267,28,4.2,-0.00006,-0.00007,31.2,32.6,40,0,0,0.0,.,0.00,0.00
15min,AgWx,bigpiney,439,20DEC2018:02:00:00,11.8,12.68,8.5,8.8,7.9,8.8,7.0,86,87,83,0.198,4.5,5.7,2.8,1.162,1.4,260,36,3.6,-0.00008,-0.00010,31.2,32.6,40,0,0,0.0,.,0.00,0.00
15min,AgWx,bigpiney,439,20DEC2018:02:15:00,11.2,12.66,6.6,5.3,6.5,8.9,5.2,84,87,81,0.165,2.7,5.7,1.4,1.469,3.3,212,7.7,5.3,-0.00004,-0.00004,31.1,32.6,40,0,0,0.0,.,0.00,0.00
15min,AgWx,bigpiney,439,20DEC2018:02:30:00,10.6,12.66,5.9,5.0,5.5,5.8,5.0,85,86,85,0.162,2.0,2.5,1.5,2.85,3.1,228,8.2,4.6,-0.00004,-0.00005,31.1,32.6,40,0,0,0.0,.,0.00,0.00
15min,AgWx,bigpiney,439,20DEC2018:02:45:00,10.1,12.64,6.1,6.2,5.5,6.2,5.0,86,87,85,0.175,2.1,3.0,1.4,3.814,3.9,224,14,5.4,-0.00003,-0.00004,31.1,32.6,40,0,0,0.0,.,0.00,0.00
15min,AgWx,bigpiney,439,20DEC2018:03:00:00,9.8,12.64,6.8,6.7,6.2,6.8,5.9,85,87,84,0.176,2.7,3.3,2.2,3.42,4.0,238,14,5.6,-0.00003,-0.00003,31.1,32.6,40,0,0,0.0,.,0.00,0.00
15min,AgWx,bigpiney,439,20DEC2018:03:15:00,9.5,12.63,6.8,6.1,6.3,7.2,5.1,85,86,83,0.167,2.6,4.0,1.0,2.74,2.6,228,37,4.2,-0.00005,-0.00006,31.1,32.6,40,0,0,0.0,.,0.00,0.00
15min,AgWx,bigpiney,439,20DEC2018:03:30:00,9.2,12.62,6.5,6.3,6.1,6.3,5.8,85,85,83,0.171,2.4,2.7,1.9,4.275,3.7,220,5.8,5.7,-0.00004,-0.00004,31.1,32.6,41,0,0,0.0,.,0.00,0.00
15min,AgWx,bigpiney,439,20DEC2018:03:45:00,9.1,12.62,7.8,6.9,7.2,8.2,6.3,84,86,81,0.176,3.4,4.5,1.9,2.126,3.2,237,80,4.7,-0.00004,-0.00005,31.1,32.6,41,0,0,0.0,.,0.00,0.00
15min,AgWx,bigpiney,439,20DEC2018:04:00:00,8.9,12.61,5.4,4.3,5.2,6.7,4.3,84,85,83,0.158,1.5,3.0,0.6,1.074,1.9,355,38,3.6,-0.00006,-0.00007,31.0,32.6,41,0,0,0.0,.,0.00,0.00
15min,AgWx,bigpiney,439,20DEC2018:04:15:00,8.6,12.6,4.2,2.6,3.9,4.8,2.6,85,86,84,0.144,0.3,1.5,-1.1,1.754,1.9,276,19,2.8,-0.00006,-0.00007,31.0,32.6,41,0,0,0.0,.,0.00,0.00
15min,AgWx,bigpiney,439,20DEC2018:04:30:00,8.1,12.6,3.9,2.6,3.4,4.1,2.6,85,87,84,0.145,0.0,0.9,-1.2,2.959,2.2,272,24,3.3,-0.00005,-0.00006,31.0,32.6,41,0,0,0.0,.,0.00,0.00
15min,AgWx,bigpiney,439,20DEC2018:04:45:00,7.5,12.57,4.2,5.7,3.4,6.1,2.4,86,90,85,0.176,0.2,3.6,-1.2,0,2.7,251,11,4.9,-0.00004,-0.00005,31.0,32.6,41,0,0,0.0,.,0.00,0.00
15min,AgWx,bigpiney,439,20DEC2018:05:00:00,7.0,12.57,4.5,4.6,4.1,5.3,3.2,86,89,83,0.162,0.7,2.6,-0.8,0,0.8,235,20,2.4,-0.00009,-0.00012,31.0,32.6,41,0,0,0.0,.,0.00,0.00
15min,AgWx,bigpiney,439,20DEC2018:05:15:00,6.6,12.58,5.0,4.1,4.6,5.8,3.5,86,89,83,0.157,1.3,3.3,-0.4,0,0.7,265,27,2.0,-0.00009,-0.00013,31.0,32.6,41,0,0,0.0,.,0.00,0.00
15min,AgWx,bigpiney,439,20DEC2018:05:30:00,6.2,12.57,5.0,5.1,4.3,5.4,3.6,87,88,85,0.166,1.2,2.7,0.2,2.324,0.6,217,5.5,2.3,-0.00009,-0.00013,31.0,32.6,41,0,0,0.0,.,0.00,0.00
15min,AgWx,bigpiney,439,20DEC2018:05:45:00,6.0,12.55,4.2,3.1,3.9,5.4,3.1,84,87,83,0.145,0.2,2.2,-0.9,3.814,4.2,213,5.4,5.4,-0.00003,-0.00003,30.9,32.6,41,0,0,0.0,.,0.00,0.00
15min,AgWx,bigpiney,439,20DEC2018:06:00:00,5.9,12.56,2.9,2.6,2.4,3.1,1.9,84,85,83,0.146,-1.4,-0.8,-2.0,3.201,3.3,225,7.1,4.4,-0.00003,-0.00004,30.9,32.6,41,0,0,0.0,.,0.00,0.00
15min,AgWx,bigpiney,439,20DEC2018:06:15:00,5.7,12.55,3.1,3.3,2.5,3.3,1.9,85,86,83,0.152,-1.1,0.1,-2.0,2.806,3.2,218,5.4,4.3,-0.00004,-0.00004,30.9,32.6,41,0,0,0.0,.,0.00,0.00
15min,AgWx,bigpiney,439,20DEC2018:06:30:00,5.5,12.54,3.4,3.4,2.8,3.4,2.5,85,86,84,0.151,-0.8,0.0,-1.3,2.477,3.5,221,9.2,4.7,-0.00003,-0.00003,30.9,32.6,41,0,0,0.0,.,0.00,0.00
15min,AgWx,bigpiney,439,20DEC2018:06:45:00,5.5,12.54,3.9,3.4,3.4,3.8,2.9,84,85,83,0.150,-0.3,0.4,-1.1,2.981,3.1,242,11,4.3,-0.00004,-0.00004,30.9,32.6,41,0,0,0.0,.,0.00,0.00
15min,AgWx,bigpiney,439,20DEC2018:07:00:00,5.6,12.52,4.7,4.4,4.0,5.0,3.4,84,86,83,0.155,0.3,1.8,-0.2,2.477,2.5,240,6.4,3.7,-0.00005,-0.00005,30.9,32.6,41,0,0,0.0,.,0.00,0.00
15min,AgWx,bigpiney,439,20DEC2018:07:15:00,5.6,12.52,4.8,4.5,4.2,4.7,3.9,84,85,83,0.159,0.4,0.9,0.0,2.039,2.6,240,7.1,3.3,-0.00005,-0.00005,30.8,32.7,41,0,0,0.0,.,0.00,0.00
15min,AgWx,bigpiney,439,20DEC2018:07:30:00,5.6,12.52,6.0,5.3,5.4,6.1,4.8,85,88,83,0.163,1.9,3.1,1.1,2.916,2.5,240,9.2,3.6,-0.00005,-0.00006,30.8,32.6,41,0,0,0.0,.,0.00,0.00
15min,AgWx,bigpiney,439,20DEC2018:07:45:00,5.7,12.56,6.5,6.6,5.9,6.9,5.2,84,87,82,0.176,2.1,3.8,1.2,0.702,1.3,235,7.3,3.2,-0.00007,-0.00009,30.8,32.6,41,5,0,0.0,.,0.00,0.00
15min,AgWx,bigpiney,439,20DEC2018:08:00:00,5.9,13.2,6.7,5.1,6.3,7.0,5.1,83,86,82,0.158,2.4,3.5,0.8,2.521,1.3,206,11,2.5,-0.00006,-0.00008,30.8,32.6,41,18,0,0.0,.,0.00,0.00
15min,AgWx,bigpiney,439,20DEC2018:08:15:00,6.2,15.02,6.2,6.7,5.6,6.7,5.0,83,84,82,0.173,1.6,2.8,0.8,0,2.2,185,16,3.7,-0.00009,-0.00008,30.7,32.6,41,36,0,0.0,.,0.00,0.00
15min,AgWx,bigpiney,439,20DEC2018:08:30:00,6.8,15,7.1,6.5,6.6,7.1,6.1,84,84,82,0.171,2.6,3.3,1.9,1.776,0.9,71,15,2.2,-0.00007,-0.00007,30.7,32.6,41,58,0,0.0,.,0.00,0.00
15min,AgWx,bigpiney,439,20DEC2018:08:45:00,7.5,15.04,7.8,6.3,7.4,8.3,6.3,83,85,82,0.167,3.4,4.6,2.0,2.324,1.7,45,30,2.8,0.00002,0.00004,30.7,32.6,41,66,0,0.0,.,0.00,0.00